Content
SEND FEEDBACK

Daily
Averages
Monthly
Summary
Germany

FASSBURG, GERMANY


Home > Europe > Germany
Elevation: 245 feet     Latitude: 52 55N     Longitude: 010 11E

WEATHER
 
SELECT A DAY
Number of Records: 42,976;   Date Range: 2/20/97 - 10/24/14
 
SHARE

PRINT THIS DATA

[ ← Previous Day ]
WEATHER ALMANAC - FEBRUARY 13, 2013
[ Next Day → ]
[ °C ]   °F
Weather ElementAverageHighLow
Temperature26.9 °F32 °F (3:20 pm)15.8 °F (11:20 pm)
Dewpoint24.4 °F26.6 °F (12:30 am)15.8 °F (11:20 pm)
Humidity90.8 %100 % (6:20 am)75 % (3:20 pm)
Barometer30.24 in30.33 in (6:20 pm)30.06 in (12:30 am)
Wind Speed3.3 mph6.9 mph (2:20 pm)
Weather ElementAverage
Visibility4.9 mi
Wind DirectionESE (99.3 °)

Weather ElementTotal
Precipitation---
Heating Degree Days41.1 (Base 65)
Averaged from 28 records on February 13, 2013
WEATHER CONDITIONS BREAKOUT
WIND DIRECTION BREAKOUT
WEATHER BY HOUR - FEBRUARY 13, 2013
[ °C ]   °F
Local TimeTemperatureDewpointHumidityBarometerVisibilityWind DirectionWind SpeedGust SpeedPrecipitationEventsConditions
12:30 AM28.4 °F26.6 °F93 %30.06 in3.1 miNorth (360°)5.8 mphSnowLight Snow
1:20 AM28.4 °F26.6 °F93 %30.09 in3.7 miNorth (10°)5.8 mphSnowLight Snow
2:20 AM28.4 °F26.6 °F93 %30.09 in3.7 miNNE (20°)5.8 mphSnowLight Snow
3:20 AM28.4 °F26.6 °F93 %30.12 in3.1 miNorth (10°)5.8 mphSnowLight Snow
4:20 AM28.4 °F26.6 °F93 %30.12 in3.1 miNNE (20°)3.5 mphMostly Cloudy
5:20 AM28.4 °F26.6 °F93 %30.15 in3.7 miNNE (30°)4.6 mphMostly Cloudy
6:20 AM24.8 °F24.8 °F100 %30.15 in4.3 miENE (60°)2.3 mphMostly Cloudy
7:20 AM23.0 °F23.0 °F100 %30.18 in3.7 miNE (50°)1.2 mphFogFog
7:42 AM24.8 °F24.8 °F100 %30.18 in3.7 miNorth (350°)1.2 mphFogShallow Fog
8:20 AM24.8 °F24.8 °F100 %30.21 in3.1 miNW (320°)2.3 mphFogFog
9:20 AM26.6 °F24.8 °F93 %30.24 in3.1 miNNE (30°)2.3 mphMostly Cloudy
10:20 AM26.6 °F24.8 °F93 %30.24 in3.7 miNNE (30°)3.5 mphMostly Cloudy
11:20 AM28.4 °F24.8 °F86 %30.27 in4.3 miNNW (340°)3.5 mphMostly Cloudy
11:42 AM28.4 °F26.6 °F93 %30.27 in5.0 miVariable1.2 mphMostly Cloudy
12:03 PM30.2 °F26.6 °F86 %30.27 in6.2 miVariable1.2 mphMostly Cloudy
12:20 PM30.2 °F26.6 °F86 %30.27 in6.2 miEast (90°)4.6 mphMostly Cloudy
1:20 PM30.2 °F24.8 °F80 %30.27 in6.2 miSE (140°)3.5 mphScattered Clouds
2:20 PM30.2 °F26.6 °F86 %30.30 in6.2 miENE (70°)6.9 mphMostly Cloudy
3:20 PM32.0 °F24.8 °F75 %30.30 in6.2 miENE (70°)1.2 mphMostly Cloudy
4:20 PM32.0 °F24.8 °F75 %30.30 in6.2 miEast (80°)5.8 mphMostly Cloudy
5:00 PM30.2 °F24.8 °F80 %30.30 in6.2 miEast (80°)4.6 mphMostly Cloudy
5:20 PM28.4 °F24.8 °F86 %30.30 in6.2 miEast (90°)4.6 mphMostly Cloudy
6:20 PM26.6 °F24.8 °F93 %30.33 in6.2 miEast (90°)3.5 mphScattered Clouds
7:20 PM24.8 °F23.0 °F93 %30.33 in6.2 miSSE (160°)2.3 mphPartly Cloudy
8:20 PM23.0 °F21.2 °F93 %30.33 in6.2 miNNE (20°)1.2 mphPartly Cloudy
9:20 PM21.2 °F19.4 °F93 %30.33 in6.2 miEast (80°)1.2 mphPartly Cloudy
10:20 PM19.4 °F17.6 °F93 %30.33 in6.2 miEast (100°)1.2 mph
11:20 PM15.8 °F15.8 °F100 %30.33 in6.2 miEast (80°)2.3 mph
Hourly data recorded from ETHS, located miles away from Fassburg, Germany







STORIES FROM OUR PARTNERS